Wind_Speed
33 30 29 27 27 25 23 23 24 25 25 24 24 24 23 23 23 23 24 24 21 19 16 17 11 7 17 6 15 14 9 13 15 17 16 12 8 9 8 6 8 9 7 10 13
37 36 33 31 30 30 29 28 28 28 29 28 30 30 28 24 22 21 19 17 14 15 13 11 18 23 14 12 16 17 17 17 17 17 14 10 12 10 10 8 8 10 10 7 10
37 38 37 36 35 35 34 33 32 31 32 33 30 27 25 22 21 18 17 13 10 6 4 18 21 13 15 14 10 8 11 14 17 17 14 11 12 11 10 6 6 10 9 10 5
35 37 38 38 39 40 38 37 35 34 31 25 23 21 19 18 17 13 11 8 7 4 4 9 4 1 8 10 21 11 7 15 18 15 12 10 12 11 11 1 6 8 9 11 12
34 33 33 33 33 32 33 32 29 25 22 21 22 21 19 18 16 13 10 8 6 4 1 2 10 16 22 21 22 15 14 16 15 14 10 7 8 8 7 4 1 4 9 9 12
37 35 34 32 30 28 27 25 24 24 24 24 23 23 22 21 19 16 14 12 12 11 10 9 6 6 14 13 16 15 15 12 10 12 12 4 7 6 10 9 6 5 7 11 11
41 40 37 35 34 32 31 30 28 27 26 25 25 26 25 24 24 23 19 17 17 17 16 14 7 6 8 4 2 23 12 9 10 17 16 8 6 6 7 9 10 9 9 11 16
44 44 43 40 38 35 34 33 32 31 31 30 28 28 29 29 27 28 26 23 20 23 20 14 7 5 8 7 15 7 11 8 22 24 23 15 8 8 8 9 11 9 8 13 16
42 42 41 41 41 40 39 38 37 37 35 33 33 33 31 34 30 34 32 29 26 26 22 14 3 17 13 21 14 8 10 10 23 25 26 18 18 20 14 8 12 13 16 20 18
44 44 43 43 44 43 44 44 42 40 39 38 37 36 35 36 36 38 35 33 31 26 21 13 10 17 8 20 17 14 12 11 11 16 15 13 21 15 13 11 11 16 20 23 22
44 45 44 45 45 45 46 45 45 44 43 43 42 39 39 38 39 37 33 33 29 25 21 15 15 26 13 22 21 21 17 16 17 18 10 18 16 18 17 9 7 10 17 19 17
43 44 44 44 44 44 44 45 46 47 46 46 45 42 41 42 41 40 37 38 36 30 22 22 17 27 22 22 23 22 25 21 28 32 19 17 15 20 19 7 8 14 18 25 25
46 46 45 44 45 45 45 44 44 45 44 43 43 43 41 41 39 40 38 38 38 34 27 27 22 21 26 26 30 32 34 30 36 36 31 18 9 28 20 12 9 17 16 19 19
41 42 41 41 40 40 39 39 39 39 38 41 39 37 37 36 35 36 37 36 35 36 28 25 24 24 24 22 24 30 25 23 41 46 43 24 28 29 21 17 20 19 17 14 15
38 37 37 37 37 37 36 36 36 33 32 37 32 34 34 33 37 33 36 35 35 36 29 30 26 27 26 22 20 24 31 30 28 33 32 22 26 27 18 17 20 18 21 13 15
35 35 35 34 34 33 32 32 30 29 29 33 29 28 30 30 32 34 37 34 33 33 30 31 29 25 29 25 23 27 28 30 26 28 30 21 21 22 25 7 31 22 24 19 23
33 33 32 31 31 29 28 28 28 26 25 27 25 24 24 26 27 31 31 35 33 34 32 35 33 29 32 29 29 28 26 24 19 26 30 20 18 26 32 26 28 27 22 26 30
29 30 29 29 27 27 26 29 27 25 24 25 23 23 23 24 22 28 29 32 33 34 34 34 32 30 35 36 30 27 25 21 22 30 31 22 22 22 26 29 25 30 26 24 35
27 28 29 28 27 27 28 30 27 27 28 27 25 23 23 22 22 23 26 30 32 33 35 35 34 37 39 36 33 33 26 30 28 31 33 31 24 27 25 35 32 26 31 34 41
32 31 32 30 31 31 33 32 31 31 31 30 27 25 25 23 23 23 23 26 30 33 35 36 36 35 36 34 31 31 35 32 30 33 34 36 28 27 27 20 26 29 37 36 41
36 34 37 35 34 35 36 34 33 33 32 31 29 29 26 24 25 23 24 22 26 30 33 36 34 34 33 32 34 36 36 34 32 35 37 39 33 24 22 22 19 15 36 30 29
42 39 44 37 38 37 39 34 33 33 30 30 30 31 30 26 25 25 25 23 24 28 32 36 35 34 32 34 40 39 38 33 32 34 36 40 38 21 30 14 21 25 17 7 4
46 43 44 39 41 38 35 29 26 26 24 23 23 23 23 27 27 25 27 22 27 24 27 31 32 34 33 30 35 37 36 34 34 36 32 34 39 35 27 22 16 18 23 8 16
48 46 40 42 41 36 33 29 29 30 28 28 26 23 22 21 26 26 25 23 25 21 28 29 33 33 33 37 40 38 34 33 31 29 31 33 38 31 21 23 18 21 28 14 16
47 39 37 44 37 38 35 34 32 33 34 34 34 34 29 25 23 23 22 21 24 23 25 25 28 32 36 29 30 32 31 28 27 28 25 35 34 31 19 15 14 24 19 21 8
51 45 49 46 42 42 41 39 37 36 33 31 31 27 25 27 21 22 26 24 21 24 25 23 26 29 29 30 29 24 31 33 31 30 30 37 28 27 13 11 19 22 16 16 19
61 59 54 48 47 50 49 46 41 35 31 28 28 24 23 21 22 26 29 22 21 24 22 23 23 24 26 28 27 28 30 28 29 30 32 30 17 19 17 15 16 20 19 21 23
Wind_Direction
251 256 260 262 262 263 268 277 280 284 286 289 294 296 298 302 303 307 310 320 325 334 345 346 353 18 24 342 328 328 341 306 314 312 314 320 301 264 275 307 343 348 307 282 271
249 254 257 262 265 267 269 270 276 282 287 289 294 295 296 299 301 307 318 328 337 336 341 49 46 31 316 335 340 337 301 315 310 301 308 312 308 269 282 301 334 349 356 331 293
249 253 256 261 265 267 270 272 278 282 285 289 291 293 293 295 299 306 316 329 337 4 53 97 85 59 343 284 330 2 337 315 304 299 312 313 315 277 275 286 4 8 11 17 323
249 251 254 259 264 266 269 272 274 277 281 283 290 296 300 302 300 306 323 339 340 47 106 195 249 210 212 262 262 270 330 324 313 306 308 322 317 295 267 280 52 35 20 26 22
248 250 252 256 260 264 266 268 268 269 272 280 287 292 294 297 299 301 307 314 310 322 340 185 237 253 268 283 273 286 315 333 315 306 309 329 312 280 270 248 11 12 9 5 11
249 251 252 255 258 261 264 265 264 269 273 277 281 286 286 288 290 293 293 296 298 297 298 303 313 291 247 267 298 335 343 326 330 338 318 350 336 254 256 245 266 339 333 350 355
247 251 253 254 255 258 261 262 264 266 269 273 279 280 281 285 285 284 286 287 290 295 297 309 316 314 299 6 45 329 340 330 354 348 323 289 294 270 272 236 246 288 306 328 336
249 252 254 255 254 254 257 259 261 265 270 272 274 275 277 279 277 281 282 282 287 291 291 301 308 175 134 162 149 192 272 305 307 313 326 299 308 274 284 261 261 276 308 297 326
250 250 250 249 252 255 256 256 260 265 266 268 271 274 273 276 274 273 278 280 281 285 287 283 266 151 166 156 132 203 228 231 271 294 304 316 290 287 291 293 292 314 325 316 316
252 252 251 252 254 255 257 257 261 261 263 265 267 272 266 269 269 271 278 277 276 275 282 275 177 155 170 177 169 176 198 242 284 295 319 337 307 292 278 279 311 336 332 316 309
252 254 254 255 256 258 258 258 258 260 262 264 268 268 268 267 265 269 270 271 275 267 272 272 191 171 205 194 213 206 234 215 247 260 309 243 255 280 295 301 337 347 344 336 328
252 255 256 257 258 259 260 260 261 263 263 265 267 265 265 264 265 269 266 265 269 265 266 268 218 195 208 197 212 194 190 213 234 252 268 238 257 284 289 249 299 328 336 343 339
255 257 258 258 260 261 263 263 263 264 265 267 267 266 265 265 265 265 263 263 264 265 260 260 243 218 214 209 206 194 200 230 241 256 255 255 290 298 277 280 268 283 316 324 335
256 257 257 259 261 262 262 263 263 264 266 262 264 266 264 262 262 259 258 257 257 260 252 250 248 249 226 227 216 217 226 275 256 259 262 239 210 240 255 261 264 286 304 309 308
256 257 258 259 261 263 264 266 266 267 269 267 269 267 264 260 258 256 257 255 254 253 252 245 243 252 251 230 219 217 222 234 238 250 252 232 200 235 248 246 269 285 290 309 318
256 257 258 259 260 262 263 265 265 264 263 269 268 265 263 260 256 250 249 252 252 252 251 248 243 241 249 241 233 231 227 235 233 241 242 236 202 229 223 299 277 282 299 291 313
253 255 256 256 256 257 258 258 261 263 262 268 270 269 264 261 256 254 246 249 246 247 245 242 240 233 242 246 239 242 239 242 240 244 249 241 215 221 230 230 255 268 280 276 280
248 250 250 251 250 251 253 256 259 261 265 263 264 268 267 263 256 254 249 245 245 243 243 241 240 237 237 241 246 245 247 250 244 248 260 244 237 237 240 243 256 273 278 263 282
238 244 247 249 250 252 255 258 260 263 263 267 269 267 269 265 261 255 252 246 243 242 241 240 240 233 236 234 240 243 245 239 237 247 253 259 248 244 244 243 249 278 274 276 271
242 244 249 250 252 254 256 260 261 262 265 265 266 267 264 263 263 258 251 249 245 240 241 241 240 240 240 242 241 245 244 243 238 248 251 258 255 249 260 263 249 237 250 265 274
246 248 253 256 258 259 261 263 265 265 265 266 266 266 263 259 263 261 257 252 250 245 240 241 242 245 239 243 237 238 240 242 241 244 254 263 262 269 256 250 263 239 264 276 287
251 251 259 258 258 260 264 267 267 266 270 269 268 266 263 261 258 260 257 254 251 245 242 240 236 240 238 228 240 237 245 247 250 250 252 262 272 265 265 265 259 262 273 192 317
255 254 260 258 259 258 259 259 257 262 263 265 266 270 269 258 257 254 254 250 253 251 248 244 240 240 241 235 240 247 244 246 246 249 256 264 274 275 280 294 304 290 279 222 197
256 255 255 257 253 246 249 254 257 260 257 262 266 272 271 269 256 254 254 251 255 253 248 241 239 235 235 232 232 241 240 244 249 255 255 258 262 279 290 301 312 277 274 256 212
253 252 253 251 242 239 243 253 261 261 263 263 267 267 268 271 270 256 258 253 250 253 253 246 239 236 239 245 244 242 244 250 256 259 259 259 265 279 307 318 291 271 274 279 235
254 251 247 243 243 243 247 256 260 261 263 264 262 265 263 262 269 261 254 246 246 249 255 246 240 239 241 239 238 238 239 237 241 244 248 259 272 282 316 275 249 267 276 268 297
248 246 245 247 244 244 249 256 255 255 256 253 258 263 266 264 257 249 249 248 245 244 244 246 239 236 235 240 242 238 238 243 248 254 257 265 286 289 278 257 254 283 295 299 305
Height
11015 11016 11017 11019 11020 11021 11023 11024 11024 11024 11025 11026 11026 11028 11030 11030 11029 11028 11027 11025 11023 11022 11020 11013 11010 11009 11008 11012 11003 10996 10999 11005 11006 11006 11005 11002 11000 10998 10997 10995 10993 10991 10991 10990 10991
11010 11012 11014 11015 11016 11017 11019 11020 11021 11021 11021 11022 11022 11024 11024 11027 11025 11025 11025 11023 11021 11020 11019 11017 11012 11010 11003 11000 10997 10995 11004 11003 11004 11003 11002 11000 10998 10997 10995 10994 10993 10992 10989 10988 10989
11005 11007 11009 11010 11011 11012 11014 11016 11017 11017 11018 11017 11018 11019 11020 11022 11022 11022 11022 11021 11019 11019 11018 11016 11011 11012 11006 11004 11006 11003 11002 11003 11005 11004 11002 10999 10997 10997 10996 10994 10993 10992 10991 10989 10987
11000 11002 11004 11005 11006 11007 11009 11010 11012 11012 11013 11014 11013 11015 11016 11017 11019 11019 11019 11019 11017 11018 11017 11014 11010 11002 11007 11003 11005 11002 11002 11005 11006 11003 11001 10999 10996 10996 10996 10994 10992 10992 10991 10989 10989
10994 10997 10998 11000 11001 11002 11003 11004 11006 11007 11009 11010 11010 11011 11012 11013 11015 11016 11016 11016 11016 11015 11015 11013 11011 11009 11002 10998 11000 11001 11002 11005 11003 10999 10998 10997 10996 10994 10995 10995 10993 10990 10990 10989 10989
10988 10991 10993 10995 10996 10997 10998 10999 11000 11002 11004 11005 11006 11006 11008 11009 11010 11011 11012 11013 11012 11012 11012 11010 11009 11006 11002 11002 11005 11002 11001 10999 10997 10998 10996 10994 10994 10994 10994 10995 10994 10992 10990 10989 10988
10981 10983 10986 10989 10990 10991 10992 10994 10995 10997 10998 11000 11001 11001 11002 11003 11003 11005 11007 11008 11008 11007 11008 11008 11008 11005 11001 11006 11005 10999 11001 10995 10994 10997 10996 10991 10989 10990 10991 10991 10992 10991 10990 10989 10988
10973 10975 10978 10981 10983 10985 10986 10988 10989 10990 10992 10993 10995 10995 10996 10997 10998 10998 11000 11002 11003 11002 11003 11005 11005 11004 11004 11003 11002 11005 11005 11000 10993 10995 10996 10993 10989 10988 10988 10989 10989 10989 10987 10986 10986
10965 10967 10969 10972 10974 10977 10979 10981 10982 10983 10984 10986 10987 10989 10991 10990 10993 10989 10992 10996 10998 10997 10997 11001 11002 11001 10999 10998 10997 10998 10997 10996 10990 10993 10997 10995 10994 10992 10990 10990 10990 10989 10987 10985 10984
10957 10958 10961 10964 10966 10968 10970 10972 10974 10975 10976 10978 10979 10983 10982 10982 10983 10982 10984 10987 10989 10991 10992 10996 10999 10997 10996 10996 10991 10993 10993 10993 10996 10995 10999 10988 10990 10991 10988 10987 10988 10989 10988 10986 10983
10947 10949 10952 10955 10956 10958 10961 10962 10964 10965 10967 10969 10970 10974 10972 10974 10973 10975 10978 10977 10981 10984 10986 10990 10995 10993 10992 10994 10989 10989 10991 10993 10990 10990 10997 10993 10986 10989 10987 10986 10986 10985 10987 10985 10982
10938 10939 10943 10945 10947 10948 10950 10952 10954 10954 10956 10959 10959 10962 10963 10964 10965 10967 10970 10970 10971 10976 10981 10982 10987 10988 10988 10990 10985 10990 10989 10988 10985 10986 10994 10996 10988 10993 10986 10982 10983 10984 10985 10984 10982
10929 10930 10933 10935 10937 10938 10940 10942 10943 10943 10946 10949 10949 10950 10953 10954 10958 10957 10960 10961 10962 10966 10972 10974 10976 10982 10983 10986 10987 10989 10986 10985 10979 10983 10987 10996 10998 10989 10984 10981 10982 10981 10978 10980 10980
10919 10921 10923 10925 10927 10928 10930 10931 10933 10934 10937 10934 10938 10941 10942 10945 10947 10949 10949 10952 10955 10956 10962 10966 10967 10971 10975 10978 10983 10985 10987 10985 10980 10978 10978 10992 10994 10975 10976 10976 10976 10978 10977 10975 10975
10910 10912 10914 10916 10918 10919 10920 10922 10923 10926 10929 10924 10932 10931 10933 10936 10935 10941 10940 10943 10946 10947 10953 10956 10960 10962 10964 10971 10976 10977 10971 10966 10972 10974 10972 10977 10982 10979 10977 10975 10971 10973 10971 10972 10968
10901 10904 10906 10908 10910 10911 10912 10913 10915 10918 10918 10917 10921 10922 10923 10925 10927 10929 10930 10934 10938 10940 10945 10947 10950 10956 10957 10961 10967 10967 10970 10970 10972 10970 10965 10972 10978 10970 10967 10975 10971 10970 10971 10968 10966
10893 10894 10897 10900 10902 10903 10905 10905 10907 10910 10912 10911 10913 10914 10915 10916 10919 10918 10923 10924 10929 10931 10935 10937 10941 10947 10949 10953 10955 10958 10961 10964 10966 10963 10959 10965 10968 10964 10965 10964 10962 10962 10963 10965 10964
10886 10887 10890 10892 10895 10897 10898 10897 10900 10903 10905 10906 10907 10907 10908 10908 10910 10910 10913 10916 10919 10923 10926 10929 10934 10939 10940 10942 10946 10951 10953 10958 10958 10954 10954 10961 10962 10962 10961 10957 10955 10954 10958 10962 10961
10879 10881 10882 10885 10888 10889 10891 10891 10896 10897 10896 10898 10900 10901 10902 10902 10903 10904 10906 10907 10910 10914 10917 10920 10925 10926 10929 10935 10939 10941 10948 10948 10951 10950 10949 10951 10957 10955 10958 10957 10958 10965 10958 10957 10955
10872 10874 10873 10878 10880 10882 10883 10885 10887 10888 10889 10890 10893 10894 10894 10894 10896 10896 10898 10900 10902 10905 10908 10911 10914 10920 10924 10928 10934 10936 10935 10940 10946 10945 10944 10940 10948 10951 10951 10957 10959 10959 10954 10956 10959
10863 10866 10865 10868 10871 10872 10873 10876 10878 10879 10881 10882 10884 10885 10886 10887 10887 10889 10890 10892 10894 10896 10899 10902 10907 10910 10915 10921 10923 10924 10927 10931 10935 10937 10935 10932 10937 10945 10948 10950 10951 10953 10948 10958 10954
10853 10858 10852 10861 10861 10863 10863 10868 10869 10869 10872 10873 10875 10876 10877 10880 10879 10882 10883 10885 10886 10888 10890 10892 10898 10900 10906 10911 10910 10916 10918 10923 10928 10930 10929 10924 10923 10941 10932 10945 10947 10943 10947 10954 10949
10841 10845 10844 10852 10851 10854 10855 10859 10861 10862 10864 10866 10867 10868 10869 10870 10872 10873 10875 10879 10878 10882 10884 10886 10891 10894 10897 10904 10907 10908 10911 10914 10918 10919 10925 10923 10918 10920 10925 10930 10937 10935 10930 10942 10940
10826 10831 10839 10837 10839 10844 10847 10850 10853 10854 10857 10858 10859 10861 10862 10863 10864 10865 10868 10873 10872 10876 10875 10879 10882 10886 10889 10890 10892 10897 10904 10907 10910 10916 10918 10918 10913 10916 10927 10928 10930 10926 10921 10939 10937
10811 10822 10827 10821 10829 10832 10837 10840 10843 10845 10848 10851 10851 10853 10855 10857 10857 10861 10863 10865 10867 10870 10871 10874 10876 10879 10879 10888 10891 10895 10898 10903 10906 10909 10913 10907 10911 10912 10921 10925 10923 10923 10923 10916 10931
10800 10806 10805 10808 10817 10820 10825 10829 10833 10835 10839 10841 10842 10845 10848 10850 10853 10853 10853 10856 10860 10863 10865 10868 10870 10873 10877 10879 10883 10890 10892 10894 10898 10901 10904 10901 10910 10913 10919 10917 10918 10918 10923 10924 10920
10779 10783 10790 10797 10803 10808 10811 10818 10822 10825 10829 10831 10834 10838 10840 10843 10843 10843 10845 10851 10854 10855 10859 10861 10865 10866 10870 10872 10877 10882 10884 10888 10892 10895 10896 10901 10907 10913 10914 10917 10920 10918 10920 10922 10920